Theta_e
313 312 311 310 308 308 306 306 307 306 306 306 307 307 307 306 307 307 308 308 309 310
310 309 307 306 307 306 306 306 306 306 306 306 306 306 306 305 305 307 307 309 309 308
307 306 306 305 305 305 304 304 305 305 305 305 306 306 305 304 305 305 307 309 310 309
305 305 305 305 305 305 304 304 304 304 305 305 305 305 304 304 304 305 306 308 308 309
304 304 303 303 305 305 304 304 304 304 304 305 305 305 304 304 306 306 306 309 308 308
303 302 302 303 305 305 303 304 304 303 303 305 305 306 306 306 306 307 307 307 308 308
302 302 303 305 304 304 304 304 303 303 304 305 306 307 308 307 307 307 307 308 307 308
303 303 305 304 304 304 304 304 302 302 304 306 307 308 309 308 307 306 305 306 307 309
305 305 305 304 304 304 303 303 302 303 303 305 306 305 306 308 307 306 305 305 307 312
306 305 305 305 304 303 303 302 302 302 303 304 306 303 303 305 307 306 303 307 308 313
306 305 305 304 304 303 302 302 301 302 303 304 305 303 302 303 307 307 308 309 311 312
306 305 304 304 304 304 302 302 302 303 303 304 305 300 300 302 306 309 310 312 312 312
307 306 305 305 304 304 302 302 303 303 304 304 303 299 299 299 307 308 307 308 309 306
307 306 306 306 305 304 303 302 302 302 303 303 302 302 299 297 305 308 308 307 308 309
Wind_Speed
4 3 2 1 1 3 2 3 4 5 5 6 7 6 6 5 5 6 6 7 6 4
4 3 2 3 2 3 4 4 5 6 7 7 8 7 7 5 8 6 7 7 6 4
3 3 3 3 5 5 5 4 6 7 7 8 7 6 6 6 7 6 6 5 6 5
4 5 4 4 5 5 4 5 5 7 8 9 8 7 7 9 9 7 7 6 6 7
5 5 5 5 5 3 5 5 5 7 8 9 8 7 8 10 8 5 7 7 5 7
6 6 6 6 4 4 5 5 6 6 8 9 8 7 8 9 10 8 7 7 7 8
7 7 6 5 5 5 4 5 6 6 8 8 8 7 5 7 9 10 9 9 8 9
7 6 6 5 5 6 5 5 5 6 7 7 5 5 7 7 9 10 11 9 8 8
6 5 6 6 6 6 6 6 5 6 6 7 5 9 12 10 9 10 10 9 7 6
6 6 7 6 5 6 7 5 7 7 6 8 7 10 11 11 7 9 10 8 6 4
6 7 6 6 7 6 4 6 6 7 6 7 8 9 11 10 7 7 8 9 6 3
6 7 7 8 9 6 4 5 6 5 6 7 8 8 10 8 6 6 5 2 1 2
6 7 8 10 9 5 4 6 4 7 5 8 8 7 7 7 4 5 3 2 3 2
7 8 9 8 6 5 6 5 7 6 5 6 6 6 6 2 2 5 3 2 2 2
Wind_Direction
148 155 121 158 252 283 266 295 319 309 309 308 303 288 281 280 281 278 266 252 237 232
170 144 229 273 271 286 324 312 309 314 307 304 284 283 287 289 292 286 275 262 253 230
212 244 265 287 299 305 297 301 314 302 298 288 292 302 307 300 288 283 275 275 273 249
246 255 272 279 278 274 293 304 296 302 308 312 311 315 319 302 292 284 291 282 274 266
265 267 278 274 275 274 284 290 301 310 309 303 309 317 309 300 286 290 303 302 298 280
264 267 269 274 265 274 286 304 305 310 303 308 310 326 318 307 300 305 287 283 281 284
262 263 265 264 260 273 286 288 298 298 297 302 311 318 312 305 308 308 303 295 288 277
262 267 268 249 260 274 279 276 281 291 299 301 303 300 304 298 298 296 297 292 280 274
263 266 243 245 261 273 279 283 281 292 294 301 298 293 294 301 300 300 294 293 296 308
262 255 239 247 264 267 274 281 284 289 295 291 293 290 296 298 303 300 293 284 290 302
247 249 246 252 258 267 262 273 280 288 292 288 288 292 301 309 313 292 276 278 262 244
234 247 244 248 255 259 258 276 268 263 291 286 290 305 312 328 315 293 319 323 194 215
232 234 242 245 248 247 230 260 279 289 268 274 282 299 320 342 308 296 304 314 321 296
232 233 235 246 232 239 256 268 274 270 278 274 265 284 285 358 306 284 294 316 304 256